[[{"header":{"parameterUnit":"m.s-1","parameterCategory":2,"la1":30.2991,"la2":30.254,"lo1":-89.0895,"lo2":-89.0444,"dy":0.0017,"dx":0.0017,"nx":28,"ny":28,"refTime":"2024-02-06T09:00:00:Z","depth":"0","parameterNumber":2,"parameterNumberName":"U-component_of_CURRENTS"},"data":[0,0,0,0,0,0,0,0,0,0,0,0,0,0,0,0,0,0,0,0,0,0,0,0,0,0,0,0,0,0,0,0,0,0,0,0,0,0,0,0,0,0,0,0,0,0,0,0,0,0,0,0,0,0,0,0,0,0,0.3634,0.3635,0,0.3664,0.3664,0.3664,0.3644,0.3644,0.3644,0.3643,0.3614,0.3613,0.3613,0,0,0,0,0,0,0,0,0,0,0,0,0,0.357,0.3571,0.3634,0.3635,0.3636,0.3664,0.3664,0.3664,0.3645,0.3644,0.3643,0.3643,0.3614,0.3613,0.3613,0,0,0,0,0,0,0,0,0,0,0,0,0,0.3594,0.3571,0.3634,0.3633,0.3633,0.3664,0.3664,0.3664,0.3645,0.3644,0.3643,0.3643,0.3614,0.3613,0.3613,0.3624,0,0,0.3611,0.3611,0,0,0,0,0,0,0,0,0.3593,0.3596,0.3632,0.3633,0.3634,0.3654,0.3631,0.3649,0.3645,0.3636,0.3643,0.3642,0.3625,0.3624,0.3625,0.3623,0.3622,0.3611,0.3611,0.3611,0.3611,0,0,0,0,0,0,0,0.3591,0.3595,0.3641,0.3633,0.3634,0.3634,0.3636,0.3634,0.3629,0.3636,0.3636,0.3647,0.3624,0.3626,0.3624,0.3621,0.3611,0.3611,0.3611,0.361,0.3668,0.367,0,0,0,0,0,0,0.3597,0.3593,0.364,0.3643,0.3616,0.3636,0.3638,0.3644,0.3631,0.363,0.3648,0.3646,0.3627,0.3625,0.3623,0.3662,0.3611,0.361,0.361,0.3666,0.3669,0.3671,0,0,0,0,0,0,0.3595,0.3601,0.3639,0.3622,0.3628,0.3639,0.3645,0.3645,0.3653,0.3641,0.3637,0.3656,0.3626,0.3624,0.3636,0.3659,0.361,0.361,0.3664,0.3667,0.367,0.3722,0,0,0,0,0,0,0.3593,0.36,0.3605,0.3623,0.3629,0.3666,0.3646,0.3647,0.3663,0.3661,0.3647,0.3643,0.3626,0.3637,0.3636,0.3658,0.3609,0.3662,0.3666,0.3669,0.3718,0.3726,0.3733,0,0,0,0,0,0.3591,0.3601,0.3604,0.3611,0.3636,0.3667,0.367,0.3672,0.3664,0.3674,0.3669,0.3644,0.3658,0.3638,0.3636,0.3658,0.366,0.3665,0.3669,0.3714,0.3724,0.3733,0,0,0,0,0,0,0.3568,0.3601,0.3605,0.3622,0.3648,0.3666,0.3679,0.3681,0.3686,0.3683,0.3663,0.3659,0.3685,0.3668,0.3647,0.3689,0.3657,0.3661,0.3693,0.3702,0.371,0.3722,0.3609,0,0,0,0,0,0.357,0.3589,0.3618,0.3634,0.365,0.3666,0.3679,0.3685,0.3695,0.3696,0.3688,0.3687,0.3701,0.3698,0.3705,0.3719,0.3732,0.3736,0.3744,0.375,0.3762,0.3809,0.3822,0.3684,0.3684,0.3684,0,0,0.3564,0.3587,0.3596,0.3632,0.3651,0.3676,0.3671,0.37,0.3717,0.3693,0.3709,0.3716,0.3715,0.3739,0.3747,0.3724,0.3798,0.3756,0.3761,0.3769,0.3815,0.3828,0.384,0.3687,0.3687,0.3686,0,0,0.3569,0.3588,0.3607,0.3634,0.3675,0.3689,0.3701,0.3728,0.3737,0.3762,0.3757,0.3781,0.3785,0.3794,0.3798,0.3854,0.3845,0.3856,0.3892,0.3938,0.395,0.396,0.3999,0.4012,0.385,0.385,0.385,0,0.356,0.3587,0.3617,0.3646,0.3672,0.3697,0.3723,0.3742,0.3766,0.379,0.3774,0.3825,0.3814,0.386,0.3877,0.387,0.3895,0.3852,0.3948,0.3958,0.3968,0.4005,0.4019,0.3853,0.3853,0.3852,0.3852,0,0.3578,0.3604,0.3623,0.3666,0.3698,0.3728,0.3766,0.3801,0.3817,0.3835,0.3892,0.3893,0.3925,0.3927,0.3914,0.3982,0.3979,0.3959,0.3921,0.3985,0.402,0.4034,0.3857,0.3856,0.3855,0.3855,0,0,0.3543,0.3618,0.3623,0.3649,0.3712,0.3736,0.3795,0.3852,0.3892,0.3922,0.3975,0.4003,0.4015,0.4023,0.4019,0.4048,0.413,0.4033,0.4034,0.4066,0.4239,0.4244,0.4258,0.4129,0.4132,0.4134,0.4239,0,0.3546,0.3593,0.3638,0.3683,0.3712,0.3776,0.382,0.388,0.393,0.3987,0.4023,0.4061,0.4047,0.4064,0.4102,0.4131,0.4169,0.4104,0.4178,0.418,0.4172,0.4275,0.4188,0.4275,0.4252,0.4254,0.4256,0,0.3541,0.3578,0.362,0.3697,0.3716,0.375,0.3848,0.3893,0.3994,0.403,0.4102,0.4133,0.4203,0.4165,0.4267,0.4231,0.4246,0.4257,0.4261,0.4257,0.4211,0.4208,0.4301,0.419,0.4276,0.4275,0.4273,0,0.3486,0.3564,0.3593,0.3619,0.3707,0.3753,0.3806,0.3909,0.3968,0.4065,0.4126,0.4205,0.426,0.4305,0.4362,0.4319,0.4469,0.4405,0.4425,0.4425,0.4362,0.4352,0.4351,0.4475,0.4475,0.4475,0.4474,0,0.3463,0.3486,0.3571,0.3585,0.3633,0.3714,0.3781,0.3855,0.3974,0.4037,0.4139,0.4217,0.4301,0.4404,0.4414,0.4495,0.4522,0.4467,0.4468,0.4378,0.4369,0.4277,0.4212,0.4479,0.4478,0.4477,0.4476,0,0.3392,0.3445,0.3484,0.3576,0.3604,0.364,0.3764,0.3811,0.3941,0.404,0.408,0.4263,0.4394,0.4489,0.4579,0.4575,0.4514,0.4637,0.4533,0.452,0.44,0.4341,0.419,0.4058,0.4667,0.4667,0.4668,0,0.3358,0.3369,0.3453,0.3468,0.3509,0.3578,0.3615,0.376,0.383,0.4055,0.41,0.4301,0.4422,0.4613,0.4656,0.4726,0.4549,0.4652,0.4544,0.4419,0.4354,0.4143,0.4024,0.448,0.4479,0.4478,0.4478,0,0.329,0.332,0.3347,0.3382,0.3419,0.3466,0.3554,0.3619,0.3785,0.3908,0.4089,0.4225,0.4464,0.4537,0.467,0.4686,0.4445,0.4639,0.4535,0.4249,0.3992,0.3856,0.438,0.4472,0.4473,0.4473,0.4473,0.4474,0.3227,0.3229,0.3259,0.3281,0.3312,0.334,0.3341,0.3466,0.358,0.3734,0.3969,0.4118,0.4359,0.456,0.4545,0.4499,0.4407,0.4384,0.4338,0.4146,0.3965,0.4488,0.4562,0.4563,0.4564,0.4564,0.4565,0,0.3135,0.3139,0.3153,0.316,0.313,0.32,0.3265,0.3252,0.3324,0.3544,0.3708,0.3989,0.412,0.4253,0.4361,0.4237,0.3999,0.4115,0.3792,0.3699,0.4215,0.4156,0.4113,0.4114,0.4114,0.4114,0.4114,0.4114,0.3082,0.3046,0.3051,0.2967,0.2965,0.2891,0.2897,0.2923,0.3039,0.3194,0.3353,0.3575,0.3932,0.4151,0.4101,0.4005,0.3656,0.3531,0.3439,0.3828,0.3847,0.3866,0.3796,0.3678,0.3677,0.279,0.2783,0.2779]},{"header":{"parameterUnit":"m.s-1","parameterCategory":2,"la1":30.2991,"la2":30.254,"lo1":-89.0895,"lo2":-89.0444,"dy":0.0017,"dx":0.0017,"nx":28,"ny":28,"refTime":"2024-02-06T09:00:00:Z","depth":"0","parameterNumber":3,"parameterNumberName":"V-component_of_CURRENTS"},"data":[0,0,0,0,0,0,0,0,0,0,0,0,0,0,0,0,0,0,0,0,0,0,0,0,0,0,0,0,0,0,0,0,0,0,0,0,0,0,0,0,0,0,0,0,0,0,0,0,0,0,0,0,0,0,0,0,0,0,0.0018,0.0018,0,-0.0053,-0.0054,-0.0055,-0.0107,-0.0107,-0.0107,-0.0107,-0.0231,-0.0234,-0.0237,0,0,0,0,0,0,0,0,0,0,0,0,0,0.0041,0.0041,0.0018,0.0018,0.0017,-0.0053,-0.0054,-0.0055,-0.0107,-0.0107,-0.0107,-0.0107,-0.023,-0.0234,-0.0238,0,0,0,0,0,0,0,0,0,0,0,0,0,0.0005,0.0041,0.0019,-0.0015,-0.0019,-0.0052,-0.0054,-0.0055,-0.0107,-0.0107,-0.0107,-0.0108,-0.0229,-0.0234,-0.0238,-0.026,0,0,-0.0252,-0.0254,0,0,0,0,0,0,0,0,0.0007,0.0004,-0.001,-0.0013,-0.0017,-0.0069,-0.0091,-0.0126,-0.0106,-0.0076,-0.0107,-0.0108,-0.018,-0.0189,-0.0204,-0.0265,-0.0271,-0.0253,-0.0256,-0.0258,-0.0259,0,0,0,0,0,0,0,0.001,0.0006,-0.0012,-0.001,-0.0015,-0.0051,-0.0056,-0.0098,-0.0128,-0.0078,-0.0082,-0.0086,-0.0183,-0.0199,-0.0207,-0.0273,-0.0253,-0.0257,-0.026,-0.0261,-0.0342,-0.0341,0,0,0,0,0,0,0.0027,0.0009,-0.001,-0.0014,-0.0003,-0.005,-0.0056,-0.0054,-0.0126,-0.0137,-0.0086,-0.0088,-0.0191,-0.0202,-0.0212,-0.0219,-0.0258,-0.0262,-0.0265,-0.0342,-0.0341,-0.0341,0,0,0,0,0,0,0.0028,0.0026,-0.0007,-0.0003,-0.0009,-0.005,-0.0047,-0.0055,-0.0068,-0.0131,-0.0143,-0.0089,-0.0192,-0.0206,-0.0245,-0.0225,-0.0264,-0.0268,-0.0343,-0.0342,-0.0341,-0.0247,0,0,0,0,0,0,0.0029,0.0027,0.0033,-0.0001,-0.0009,-0.0014,-0.0047,-0.0056,-0.0069,-0.0073,-0.0138,-0.015,-0.0193,-0.0238,-0.025,-0.0232,-0.0272,-0.0344,-0.0343,-0.0341,-0.0251,-0.0243,-0.0237,0,0,0,0,0,0.003,0.0049,0.0034,0.0032,0.0002,-0.0013,-0.002,-0.0053,-0.0068,-0.0067,-0.0114,-0.0148,-0.0238,-0.0241,-0.0255,-0.0239,-0.0344,-0.0343,-0.0342,-0.0255,-0.0245,-0.0237,0,0,0,0,0,0,0.0063,0.0044,0.0028,0.0039,0.0018,-0.0021,-0.0021,-0.0045,-0.0081,-0.0085,-0.0148,-0.0163,-0.0188,-0.0228,-0.023,-0.0258,-0.0294,-0.0295,-0.0223,-0.0214,-0.0207,-0.0182,-0.0276,0,0,0,0,0,0.0073,0.008,0.0053,0.0061,0.0056,0.0017,0.0006,-0.0013,-0.0048,-0.0064,-0.0109,-0.0156,-0.0194,-0.0215,-0.0256,-0.0276,-0.0317,-0.0272,-0.0264,-0.0258,-0.0247,-0.0297,-0.0293,-0.0336,-0.0336,-0.0336,0,0,0.0088,0.0078,0.0081,0.0068,0.0048,0.0055,0.001,0.0005,0.001,-0.0072,-0.0083,-0.0135,-0.0194,-0.0214,-0.0228,-0.0244,-0.0267,-0.0256,-0.025,-0.0242,-0.0295,-0.0291,-0.0287,-0.0335,-0.0335,-0.0335,0,0,0.0128,0.0113,0.0135,0.0124,0.0106,0.0086,0.009,0.0057,0.0042,0.002,-0.0032,-0.0074,-0.0131,-0.0168,-0.0195,-0.0173,-0.0228,-0.018,-0.0122,-0.017,-0.0167,-0.0164,-0.0207,-0.0209,-0.0174,-0.0173,-0.0173,0,0.0145,0.0168,0.0138,0.0155,0.0156,0.0108,0.0132,0.0112,0.007,0.0064,0.0031,-0.005,-0.0109,-0.0128,-0.0123,-0.0156,-0.0188,-0.0149,-0.0159,-0.0158,-0.0157,-0.0202,-0.0205,-0.0169,-0.0169,-0.017,-0.017,0,0.0201,0.0216,0.0229,0.0236,0.0233,0.0245,0.0219,0.0217,0.0187,0.0157,0.0127,0.0043,-0.0001,-0.0026,-0.0073,-0.0084,-0.0111,-0.0145,-0.0178,-0.0147,-0.0196,-0.0201,-0.0162,-0.0164,-0.0165,-0.0166,0,0,0.025,0.0266,0.0271,0.0294,0.0278,0.029,0.0302,0.03,0.032,0.0257,0.0265,0.018,0.0131,0.0097,0.0035,-0.0012,-0.0047,-0.0066,-0.0071,-0.0101,-0.0145,-0.0142,-0.0149,-0.008,-0.0081,-0.0081,-0.0179,0,0.0302,0.036,0.0348,0.0404,0.0434,0.0404,0.0428,0.0418,0.0386,0.038,0.0292,0.0265,0.0181,0.0161,0.0102,-0.0005,-0.0057,-0.0016,-0.0177,-0.0181,-0.0177,-0.0153,-0.0105,-0.0186,-0.0185,-0.0186,-0.0187,0,0.0366,0.0395,0.0462,0.0507,0.0519,0.0547,0.058,0.0591,0.0561,0.053,0.0476,0.0406,0.0334,0.0252,0.009,0.0124,0.0001,-0.0093,-0.0099,-0.0131,-0.0188,-0.022,-0.0197,-0.0427,-0.0196,-0.0195,-0.0195,0,0.043,0.0481,0.0542,0.0553,0.0592,0.0628,0.0647,0.0641,0.0673,0.0623,0.0629,0.0518,0.048,0.0316,0.0129,0.0108,-0.0051,-0.0111,-0.0227,-0.0228,-0.0236,-0.0236,-0.0447,-0.0232,-0.0232,-0.0232,-0.0232,0,0.0497,0.0545,0.0585,0.0619,0.0714,0.0707,0.0792,0.0787,0.0797,0.0843,0.0716,0.0733,0.0495,0.0381,0.0179,-0.002,-0.0016,-0.0206,-0.0249,-0.0201,-0.0198,-0.0438,-0.0554,-0.0236,-0.0235,-0.0234,-0.0233,0,0.0561,0.058,0.066,0.0719,0.075,0.0819,0.0901,0.0955,0.0944,0.0999,0.0994,0.0902,0.0754,0.0514,0.0256,0.0069,-0.0258,-0.0222,-0.0142,-0.0173,-0.0498,-0.0608,-0.0843,-0.0927,-0.037,-0.037,-0.037,0,0.0598,0.0647,0.0741,0.0801,0.0835,0.0929,0.1,0.1026,0.1092,0.1116,0.1164,0.1052,0.1014,0.0649,0.0292,-0.0046,-0.0265,-0.024,-0.0284,-0.05,-0.0656,-0.0745,-0.0805,-0.0265,-0.0265,-0.0264,-0.0264,0,0.067,0.0704,0.0771,0.0895,0.0986,0.1095,0.1201,0.1286,0.1324,0.1389,0.1465,0.1444,0.1107,0.081,0.0341,0.0095,-0.0372,-0.0242,-0.0493,-0.0605,-0.0689,-0.0793,-0.0223,-0.026,-0.0261,-0.0261,-0.0261,-0.0261,0.0725,0.0788,0.0879,0.1003,0.1111,0.1256,0.1365,0.149,0.1638,0.1768,0.1725,0.1754,0.1287,0.0674,0.0299,-0.0355,-0.0377,-0.0558,-0.0677,-0.0753,-0.0821,-0.0232,-0.03,-0.03,-0.0301,-0.0301,-0.0301,0,0.0791,0.0863,0.0977,0.1126,0.1257,0.1304,0.1498,0.1625,0.1827,0.1969,0.2059,0.1887,0.1304,0.0678,-0.0203,-0.0696,-0.0872,-0.0973,-0.111,-0.1154,-0.0656,-0.0638,-0.0747,-0.0747,-0.0747,-0.0747,-0.0746,-0.0746,0.0827,0.0941,0.1001,0.1225,0.1336,0.1527,0.1649,0.185,0.2014,0.2226,0.2296,0.2314,0.1835,0.0228,-0.09,-0.1164,-0.1497,-0.1569,-0.1761,-0.1451,-0.1422,-0.1395,-0.141,-0.1678,-0.1679,-0.2184,-0.2189,-0.2193]}],[{"header":{"parameterUnit":"m.s-1","parameterCategory":2,"la1":30.2991,"la2":30.254,"lo1":-89.0895,"lo2":-89.0444,"dy":0.0017,"dx":0.0017,"nx":28,"ny":28,"refTime":"2024-02-06T09:00:00:Z","depth":"2","parameterNumber":2,"parameterNumberName":"U-component_of_CURRENTS"},"data":[0,0,0,0,0,0,0,0,0,0,0,0,0,0,0,0,0,0,0,0,0,0,0,0,0,0,0,0,0,0,0,0,0,0,0,0,0,0,0,0,0,0,0,0,0,0,0,0,0,0,0,0,0,0,0,0,0,0,0.3164,0.3164,0,0.3202,0.3202,0.3202,0.3202,0.3201,0.3201,0.3201,0.3202,0.3202,0.3202,0,0,0,0,0,0,0,0,0,0,0,0,0,0.3092,0.3093,0.3164,0.3165,0.3165,0.3202,0.3202,0.3202,0.3202,0.3201,0.3201,0.3201,0.3201,0.3202,0.3202,0,0,0,0,0,0,0,0,0,0,0,0,0,0.3122,0.3093,0.3164,0.3172,0.3174,0.3202,0.3202,0.3203,0.3202,0.3201,0.3201,0.3201,0.3201,0.3202,0.3202,0.3209,0,0,0.3203,0.3203,0,0,0,0,0,0,0,0,0.312,0.3124,0.317,0.3172,0.3173,0.32,0.3177,0.3204,0.3202,0.3187,0.3201,0.3201,0.32,0.3201,0.3203,0.3209,0.3209,0.3203,0.3203,0.3203,0.3203,0,0,0,0,0,0,0,0.3118,0.3123,0.3175,0.3171,0.3173,0.3175,0.3179,0.3182,0.3191,0.3188,0.3189,0.32,0.32,0.3203,0.3203,0.3209,0.3203,0.3203,0.3203,0.3203,0.3281,0.3283,0,0,0,0,0,0,0.3122,0.3121,0.3174,0.3177,0.315,0.3177,0.3181,0.3189,0.3192,0.3193,0.32,0.32,0.3203,0.3203,0.3203,0.3257,0.3203,0.3203,0.3203,0.3279,0.3281,0.3283,0,0,0,0,0,0,0.312,0.3126,0.3172,0.3153,0.3159,0.3179,0.3188,0.319,0.3206,0.3202,0.3202,0.3216,0.3203,0.3203,0.3226,0.3255,0.3203,0.3204,0.3277,0.328,0.3282,0.3334,0,0,0,0,0,0,0.3118,0.3125,0.3134,0.3153,0.3161,0.3201,0.3188,0.3191,0.3214,0.3215,0.3216,0.3215,0.3203,0.3226,0.3226,0.3254,0.3204,0.3274,0.3278,0.3281,0.333,0.3339,0.3346,0,0,0,0,0,0.3115,0.3128,0.3134,0.3141,0.3172,0.3202,0.3206,0.3216,0.3216,0.3229,0.3234,0.3215,0.3249,0.3228,0.3228,0.3256,0.3273,0.3277,0.3281,0.3327,0.3337,0.3346,0,0,0,0,0,0,0.3097,0.313,0.3137,0.3159,0.3185,0.3204,0.3221,0.3228,0.3243,0.3246,0.3234,0.3234,0.3271,0.3259,0.3236,0.3293,0.326,0.3265,0.3295,0.3305,0.3312,0.3323,0.3204,0,0,0,0,0,0.31,0.3122,0.3151,0.317,0.3187,0.3207,0.3223,0.3233,0.3249,0.3255,0.3258,0.3267,0.3288,0.3291,0.3305,0.3328,0.3337,0.335,0.3358,0.3364,0.3376,0.3421,0.3434,0.3297,0.3297,0.3297,0,0,0.3097,0.3121,0.3132,0.3169,0.3191,0.3217,0.3215,0.3248,0.327,0.3253,0.3283,0.3297,0.3303,0.3336,0.3351,0.3327,0.341,0.337,0.3375,0.3383,0.3427,0.344,0.3451,0.33,0.33,0.3299,0,0,0.3104,0.3129,0.3149,0.3177,0.3219,0.3235,0.3249,0.328,0.3296,0.333,0.3332,0.3364,0.3381,0.3395,0.3404,0.3463,0.3457,0.3471,0.3509,0.3553,0.3564,0.3574,0.3607,0.3619,0.3466,0.3466,0.3466,0,0.31,0.313,0.316,0.3189,0.3217,0.3245,0.3274,0.3296,0.333,0.3357,0.3348,0.3414,0.3412,0.3464,0.3485,0.348,0.3503,0.3468,0.3562,0.3572,0.3582,0.3613,0.3626,0.3469,0.3469,0.3469,0.3468,0,0.3119,0.315,0.3169,0.3215,0.3247,0.3281,0.332,0.336,0.3386,0.3407,0.3475,0.3484,0.3525,0.3532,0.3524,0.3596,0.3591,0.3572,0.3534,0.3598,0.3627,0.364,0.3474,0.3473,0.3472,0.3471,0,0,0.3087,0.3166,0.3171,0.32,0.3267,0.329,0.3354,0.3414,0.3459,0.3498,0.3558,0.3597,0.3615,0.3627,0.3629,0.366,0.374,0.3647,0.3648,0.3673,0.3842,0.3809,0.382,0.3741,0.3744,0.3746,0.3836,0,0.3092,0.3143,0.3188,0.3239,0.327,0.3336,0.3385,0.3447,0.3504,0.3567,0.3608,0.3657,0.3646,0.3672,0.371,0.374,0.3776,0.3717,0.3782,0.3784,0.3742,0.3835,0.3545,0.3599,0.3848,0.385,0.3852,0,0.3089,0.3128,0.3176,0.3258,0.3278,0.3317,0.3421,0.3471,0.3576,0.3618,0.3695,0.373,0.3804,0.3771,0.3868,0.3836,0.3851,0.3861,0.3864,0.3826,0.3776,0.3576,0.3613,0.3873,0.3871,0.3869,0.3868,0,0.3036,0.3118,0.3155,0.3182,0.3275,0.3326,0.3385,0.3491,0.3553,0.3661,0.3723,0.3805,0.3863,0.3907,0.3956,0.3921,0.4053,0.3999,0.3983,0.398,0.3742,0.3715,0.4065,0.4065,0.4065,0.4065,0.4065,0,0.3016,0.3045,0.3136,0.3153,0.321,0.3294,0.3372,0.3449,0.3573,0.3641,0.3743,0.3819,0.3904,0.3994,0.4003,0.4057,0.41,0.4019,0.4015,0.3754,0.3728,0.3963,0.395,0.4068,0.4067,0.4067,0.4066,0,0.2948,0.3005,0.3052,0.3152,0.3184,0.3228,0.3362,0.3414,0.3547,0.3651,0.3693,0.3864,0.3975,0.4059,0.4141,0.4123,0.416,0.4159,0.3852,0.381,0.4039,0.4028,0.4146,0.4146,0.4146,0.4146,0.4146,0,0.2917,0.2933,0.3028,0.305,0.3098,0.3178,0.3221,0.3372,0.3444,0.3663,0.3706,0.3885,0.3972,0.4121,0.4124,0.4163,0.4196,0.3899,0.3775,0.4071,0.4054,0.4043,0.4032,0.3474,0.3468,0.3464,0.346,0,0.2854,0.289,0.2923,0.2971,0.3019,0.3072,0.3169,0.3231,0.3401,0.3511,0.3664,0.3767,0.3937,0.3871,0.3956,0.3923,0.3871,0.381,0.4207,0.3512,0.3448,0.3428,0.3437,0.3419,0.3423,0.3426,0.3429,0.343,0.2798,0.2805,0.2845,0.2879,0.292,0.2951,0.2956,0.3076,0.3177,0.3304,0.3499,0.3544,0.3636,0.3624,0.3542,0.3479,0.3732,0.3548,0.3556,0.3571,0.3491,0.3432,0.3385,0.3388,0.3392,0.3394,0.3397,0,0.2713,0.2724,0.2747,0.2767,0.2747,0.2824,0.2887,0.2867,0.2918,0.3075,0.3184,0.302,0.3029,0.3092,0.296,0.2997,0.2904,0.2854,0.2696,0.2744,0.2784,0.2656,0.2332,0.2328,0.2324,0.232,0,0,0.2666,0.2638,0.2644,0.2577,0.259,0.2528,0.2532,0.2538,0.2607,0.2617,0.2632,0.2888,0.3027,0.2631,0.2618,0.2438,0.2545,0.2342,0.3215,0.3077,0.3111,0.3229,0.3094,0,0,0,0,0]},{"header":{"parameterUnit":"m.s-1","parameterCategory":2,"la1":30.2991,"la2":30.254,"lo1":-89.0895,"lo2":-89.0444,"dy":0.0017,"dx":0.0017,"nx":28,"ny":28,"refTime":"2024-02-06T09:00:00:Z","depth":"2","parameterNumber":3,"parameterNumberName":"V-component_of_CURRENTS"},"data":[0,0,0,0,0,0,0,0,0,0,0,0,0,0,0,0,0,0,0,0,0,0,0,0,0,0,0,0,0,0,0,0,0,0,0,0,0,0,0,0,0,0,0,0,0,0,0,0,0,0,0,0,0,0,0,0,0,0,0.0167,0.0167,0,0.0099,0.0099,0.0098,0.0051,0.0051,0.0051,0.005,-0.0057,-0.006,-0.0063,0,0,0,0,0,0,0,0,0,0,0,0,0,0.0191,0.0191,0.0167,0.0167,0.0166,0.01,0.0099,0.0097,0.0051,0.0051,0.005,0.005,-0.0056,-0.006,-0.0063,0,0,0,0,0,0,0,0,0,0,0,0,0,0.0156,0.0191,0.0167,0.0136,0.0133,0.01,0.0098,0.0097,0.0051,0.0051,0.005,0.005,-0.0055,-0.0059,-0.0063,-0.0083,0,0,-0.0076,-0.0077,0,0,0,0,0,0,0,0,0.0158,0.0155,0.0141,0.0138,0.0135,0.0085,0.0067,0.0036,0.0051,0.008,0.005,0.005,-0.0012,-0.002,-0.0034,-0.0088,-0.0093,-0.0076,-0.0078,-0.008,-0.0081,0,0,0,0,0,0,0,0.0161,0.0157,0.0139,0.0141,0.0137,0.0103,0.0098,0.0061,0.0034,0.0077,0.0074,0.007,-0.0014,-0.003,-0.0037,-0.0094,-0.0076,-0.0079,-0.0082,-0.0084,-0.0159,-0.0158,0,0,0,0,0,0,0.0177,0.016,0.0141,0.0137,0.0148,0.0103,0.0098,0.01,0.0035,0.0026,0.007,0.0068,-0.0023,-0.0032,-0.0041,-0.0049,-0.008,-0.0084,-0.0086,-0.0159,-0.0158,-0.0158,0,0,0,0,0,0,0.0178,0.0176,0.0143,0.0148,0.0142,0.0104,0.0106,0.0098,0.0087,0.0031,0.002,0.0067,-0.0023,-0.0035,-0.0069,-0.0055,-0.0086,-0.0089,-0.0159,-0.0159,-0.0158,-0.0079,0,0,0,0,0,0,0.0179,0.0177,0.0183,0.0149,0.0142,0.0135,0.0106,0.0097,0.0085,0.0081,0.0024,0.0014,-0.0024,-0.0063,-0.0073,-0.0061,-0.0093,-0.016,-0.0159,-0.0158,-0.0082,-0.0075,-0.007,0,0,0,0,0,0.018,0.0197,0.0183,0.0181,0.0152,0.0136,0.0129,0.0099,0.0085,0.0086,0.0045,0.0016,-0.0065,-0.0066,-0.0078,-0.0066,-0.016,-0.0159,-0.0158,-0.0084,-0.0077,-0.007,0,0,0,0,0,0,0.021,0.0192,0.0178,0.0187,0.0166,0.0129,0.0128,0.0106,0.0074,0.0071,0.0015,0.0002,-0.0021,-0.0056,-0.0056,-0.0086,-0.0115,-0.0117,-0.0055,-0.0048,-0.0042,-0.0019,-0.0096,0,0,0,0,0,0.022,0.0227,0.02,0.0207,0.0201,0.0165,0.0154,0.0136,0.0104,0.009,0.0049,0.0007,-0.0027,-0.0046,-0.0082,-0.0102,-0.014,-0.0101,-0.0095,-0.009,-0.008,-0.013,-0.0128,-0.0155,-0.0155,-0.0155,0,0,0.0234,0.0224,0.0227,0.0213,0.0194,0.0198,0.0158,0.0151,0.0155,0.0083,0.0072,0.0026,-0.0028,-0.0047,-0.006,-0.0075,-0.0102,-0.0089,-0.0083,-0.0076,-0.0129,-0.0127,-0.0124,-0.0154,-0.0154,-0.0154,0,0,0.027,0.0256,0.0276,0.0264,0.0247,0.0226,0.0229,0.0197,0.0183,0.0162,0.0116,0.0077,0.0026,-0.001,-0.0034,-0.0018,-0.0068,-0.0025,0.0023,-0.0026,-0.0025,-0.0023,-0.0064,-0.0067,-0.0022,-0.0022,-0.0022,0,0.0285,0.0305,0.0277,0.0292,0.0291,0.0246,0.0267,0.0247,0.0207,0.02,0.0172,0.0096,0.0044,0.0022,0.0025,-0.0004,-0.0036,0.0001,-0.0018,-0.0018,-0.0018,-0.006,-0.0065,-0.0018,-0.0018,-0.0019,-0.0019,0,0.0335,0.0348,0.0359,0.0364,0.036,0.0368,0.0343,0.0338,0.0311,0.0281,0.0251,0.0176,0.0132,0.0109,0.0068,0.005,0.0027,-0.0004,-0.0033,-0.001,-0.0056,-0.0062,-0.0012,-0.0013,-0.0015,-0.0016,0,0,0.0378,0.0392,0.0395,0.0416,0.0399,0.0409,0.0417,0.041,0.0424,0.0366,0.0367,0.029,0.0244,0.0213,0.0156,0.0108,0.0069,0.006,0.0055,0.0026,-0.003,-0.0044,-0.0052,0.0037,0.0036,0.0036,-0.006,0,0.0423,0.0472,0.0462,0.0511,0.0536,0.0508,0.0527,0.0514,0.0481,0.0469,0.0388,0.036,0.0287,0.0267,0.0208,0.0108,0.0057,0.0099,-0.0054,-0.0058,-0.0068,-0.0059,-0.0018,-0.01,-0.0067,-0.0068,-0.0068,0,0.0479,0.0504,0.0561,0.0601,0.0611,0.0635,0.0659,0.0666,0.063,0.06,0.0546,0.0481,0.0408,0.0339,0.0182,0.0215,0.0103,0.0017,0.001,-0.0033,-0.0082,-0.012,-0.0113,-0.0079,-0.0079,-0.0078,-0.0077,0,0.0535,0.0579,0.0632,0.0641,0.0674,0.0705,0.0722,0.0709,0.0734,0.0682,0.0684,0.0574,0.0534,0.0383,0.0206,0.0193,0.0031,-0.0016,-0.0133,-0.0136,-0.0146,-0.0148,-0.013,-0.013,-0.013,-0.0129,-0.0129,0,0.0593,0.0635,0.067,0.07,0.0784,0.0777,0.0849,0.0842,0.0844,0.088,0.0761,0.0765,0.0543,0.0427,0.0245,0.0049,0.0057,-0.0119,-0.016,-0.0117,-0.0115,-0.0135,-0.0134,-0.0133,-0.0132,-0.0131,-0.0131,0,0.0649,0.0664,0.0736,0.0787,0.0815,0.0877,0.095,0.0994,0.0979,0.1021,0.1015,0.0911,0.0756,0.0532,0.0285,0.0117,-0.0084,-0.0159,-0.0087,-0.0118,-0.023,-0.0224,-0.0303,-0.0305,-0.0306,-0.0306,-0.0307,0,0.0681,0.0724,0.0809,0.0862,0.0893,0.0977,0.1039,0.106,0.1115,0.1121,0.1159,0.1031,0.0965,0.0605,0.0279,-0.0036,-0.0083,-0.0209,-0.0238,-0.0215,-0.0248,-0.024,-0.0233,-0.0225,-0.0225,-0.0225,-0.0225,0,0.0744,0.0775,0.0834,0.0945,0.1026,0.1124,0.1218,0.1291,0.132,0.1357,0.1392,0.1342,0.1008,0.0697,0.0263,0.0057,-0.0158,-0.022,-0.0218,-0.018,-0.0147,-0.0177,-0.0171,-0.0225,-0.0225,-0.0225,-0.0225,-0.0225,0.0792,0.0849,0.0928,0.1038,0.1136,0.1264,0.1356,0.1456,0.1567,0.164,0.1579,0.1505,0.115,0.0604,0.0227,-0.0169,-0.0153,-0.0291,-0.0289,-0.0287,-0.0254,-0.0224,-0.031,-0.031,-0.031,-0.0311,-0.0311,0,0.0848,0.0911,0.1012,0.1144,0.1257,0.1304,0.1471,0.1563,0.1706,0.1763,0.1785,0.1446,0.1089,0.0672,0.0083,-0.0262,-0.028,-0.0363,-0.0319,-0.0315,-0.0312,-0.0279,-0.0343,-0.0345,-0.0346,-0.0347,0,0,0.0878,0.0976,0.1028,0.1221,0.132,0.1483,0.1587,0.1724,0.1813,0.187,0.1826,0.1744,0.1227,0.0795,0.0322,-0.0022,-0.0081,-0.0074,-0.0006,0.0109,0.0115,-0.0225,-0.0164,0,0,0,0,0]}],[{"header":{"parameterUnit":"m.s-1","parameterCategory":2,"la1":30.2991,"la2":30.254,"lo1":-89.0895,"lo2":-89.0444,"dy":0.0017,"dx":0.0017,"nx":28,"ny":28,"refTime":"2024-02-06T09:00:00:Z","depth":"4","parameterNumber":2,"parameterNumberName":"U-component_of_CURRENTS"},"data":[0,0,0,0,0,0,0,0,0,0,0,0,0,0,0,0,0,0,0,0,0,0,0,0,0,0,0,0,0,0,0,0,0,0,0,0,0,0,0,0,0,0,0,0,0,0,0,0,0,0,0,0,0,0,0,0,0,0,0.212,0.2121,0,0.2203,0.2204,0.2205,0.2272,0.2273,0.2274,0.2275,0.2367,0.2369,0.237,0,0,0,0,0,0,0,0,0,0,0,0,0,0.201,0.2012,0.212,0.2121,0.2123,0.2203,0.2204,0.2205,0.2272,0.2273,0.2275,0.2276,0.2367,0.2369,0.237,0,0,0,0,0,0,0,0,0,0,0,0,0,0.2069,0.2012,0.212,0.2168,0.2173,0.2203,0.2204,0.2205,0.2272,0.2273,0.2275,0.2276,0.2366,0.2368,0.2371,0.2357,0,0,0.2378,0.2379,0,0,0,0,0,0,0,0,0.2066,0.2073,0.216,0.2165,0.2171,0.2231,0.2199,0.2257,0.2272,0.2232,0.2275,0.2277,0.2323,0.2329,0.2338,0.2361,0.2365,0.2378,0.238,0.2381,0.2381,0,0,0,0,0,0,0,0.2062,0.207,0.215,0.2161,0.2168,0.2183,0.2192,0.221,0.2266,0.2235,0.2241,0.2254,0.2326,0.2335,0.234,0.2366,0.2378,0.238,0.2382,0.2382,0.2525,0.2527,0,0,0,0,0,0,0.2056,0.2066,0.2148,0.2153,0.2124,0.2184,0.2194,0.2208,0.2266,0.2277,0.2253,0.2257,0.2331,0.2338,0.2344,0.2454,0.2381,0.2383,0.2384,0.2522,0.2525,0.2528,0,0,0,0,0,0,0.2053,0.2063,0.2144,0.2114,0.2125,0.2184,0.2199,0.2209,0.2266,0.228,0.2291,0.2305,0.2332,0.2341,0.2405,0.2453,0.2384,0.2386,0.2519,0.2523,0.2526,0.2594,0,0,0,0,0,0,0.205,0.2061,0.209,0.2113,0.2127,0.2191,0.2198,0.221,0.227,0.2278,0.2327,0.2335,0.2334,0.2402,0.2407,0.2455,0.2388,0.2516,0.2521,0.2525,0.2589,0.2599,0.2608,0,0,0,0,0,0.2046,0.2071,0.2091,0.2103,0.2158,0.2193,0.2202,0.2246,0.2272,0.2301,0.2342,0.2336,0.2434,0.2405,0.2411,0.2461,0.2514,0.252,0.2525,0.2584,0.2597,0.2608,0,0,0,0,0,0,0.2039,0.2082,0.2104,0.2143,0.2181,0.2206,0.2246,0.2271,0.2325,0.2349,0.236,0.237,0.2447,0.2445,0.2413,0.2517,0.2475,0.2482,0.2519,0.2531,0.2541,0.2542,0.239,0,0,0,0,0,0.205,0.2087,0.2121,0.216,0.2183,0.2224,0.2253,0.2283,0.2323,0.2351,0.2385,0.2426,0.2465,0.2493,0.2523,0.2573,0.2574,0.2612,0.2622,0.263,0.2637,0.2682,0.2696,0.2545,0.2545,0.2545,0,0,0.206,0.209,0.2113,0.2163,0.22,0.2236,0.2247,0.2305,0.2346,0.235,0.2434,0.2466,0.2488,0.2551,0.2585,0.2561,0.2676,0.2637,0.2644,0.2646,0.2689,0.2703,0.2716,0.2549,0.2548,0.2548,0,0,0.2079,0.2127,0.2158,0.2195,0.2258,0.2279,0.2306,0.2359,0.2402,0.2471,0.2492,0.2554,0.2611,0.2636,0.2653,0.2735,0.2729,0.2757,0.2806,0.2849,0.2861,0.2872,0.2894,0.2906,0.2759,0.2759,0.2759,0,0.2093,0.2135,0.2175,0.2213,0.2253,0.2303,0.2344,0.2386,0.2457,0.2501,0.2513,0.2627,0.2647,0.2718,0.2753,0.2757,0.2777,0.2755,0.286,0.2871,0.2881,0.2901,0.2914,0.2763,0.2762,0.2762,0.2762,0,0.2118,0.2173,0.2199,0.2263,0.2308,0.2359,0.2413,0.248,0.254,0.2578,0.2684,0.2717,0.2786,0.2806,0.2806,0.2895,0.2886,0.2868,0.2825,0.29,0.2916,0.2928,0.2768,0.2767,0.2766,0.2765,0,0,0.2093,0.2197,0.2211,0.2255,0.2345,0.2377,0.2466,0.2546,0.2612,0.2692,0.2775,0.285,0.2886,0.2909,0.2926,0.2963,0.3049,0.2956,0.2957,0.2968,0.3146,0.2962,0.2957,0.3059,0.3061,0.3063,0.3129,0,0.2107,0.218,0.2234,0.2316,0.2358,0.2444,0.2513,0.2598,0.2679,0.277,0.2834,0.2916,0.2919,0.2968,0.3012,0.3047,0.3085,0.3032,0.3079,0.308,0.29,0.2965,0.3071,0.3137,0.314,0.3142,0.3143,0,0.2105,0.2159,0.2238,0.2349,0.2378,0.2442,0.2575,0.2645,0.2776,0.284,0.2941,0.2993,0.3088,0.3066,0.3169,0.3143,0.3159,0.3167,0.317,0.2981,0.2918,0.3048,0.3164,0.3162,0.3161,0.3159,0.3158,0,0.2045,0.216,0.2227,0.2266,0.2393,0.2468,0.255,0.2681,0.2756,0.29,0.2972,0.3078,0.3153,0.32,0.3246,0.3225,0.3333,0.3295,0.3139,0.3126,0.3241,0.3229,0.3356,0.3356,0.3356,0.3356,0.3355,0,0.2014,0.2073,0.2217,0.2251,0.2346,0.2451,0.2567,0.2663,0.2808,0.2884,0.3012,0.3079,0.3197,0.3272,0.3284,0.3251,0.3371,0.3156,0.3134,0.3268,0.3259,0.3249,0.3236,0.3358,0.3358,0.3357,0.3357,0,0.1931,0.2025,0.2111,0.2265,0.232,0.2394,0.2574,0.2639,0.2798,0.2908,0.2962,0.3122,0.3204,0.329,0.3365,0.3282,0.3273,0.323,0.3381,0.3365,0.3025,0.3016,0.3046,0.304,0.3035,0.3031,0.3027,0,0.1889,0.1928,0.2101,0.2153,0.2236,0.2364,0.2435,0.2613,0.2683,0.2898,0.2928,0.3084,0.3162,0.3122,0.3224,0.3231,0.3195,0.3166,0.3076,0.3019,0.2997,0.2994,0.2991,0.3019,0.3018,0.3017,0.3015,0,0.1808,0.1892,0.1961,0.2071,0.2165,0.2249,0.238,0.2417,0.2602,0.2771,0.2819,0.2862,0.2948,0.2994,0.3032,0.303,0.3167,0.3113,0.3122,0.3037,0.2988,0.2969,0.2972,0.2998,0.3001,0.3002,0.3003,0,0.1753,0.1781,0.1882,0.1962,0.2064,0.2101,0.2191,0.2267,0.2359,0.2594,0.2601,0.2758,0.291,0.2891,0.2925,0.2914,0.2859,0.2751,0.2778,0.2798,0.2688,0.2587,0.246,0,0,0,0,0,0.1683,0.1694,0.1758,0.1828,0.1918,0.1981,0.2126,0.2217,0.24,0.2365,0.2479,0.2539,0.2583,0.2672,0.261,0.2824,0.2878,0.274,0.277,0.2902,0.2922,0.2815,0,0,0,0,0,0,0.1631,0.1688,0.1708,0.1693,0.1713,0.1793,0.1879,0.2007,0.2007,0.22,0.224,0.2384,0.2471,0.2586,0.2558,0.2585,0.2552,0.2848,0.2841,0.2891,0.2909,0.2925,0.2822,0,0,0,0,0]},{"header":{"parameterUnit":"m.s-1","parameterCategory":2,"la1":30.2991,"la2":30.254,"lo1":-89.0895,"lo2":-89.0444,"dy":0.0017,"dx":0.0017,"nx":28,"ny":28,"refTime":"2024-02-06T09:00:00:Z","depth":"4","parameterNumber":3,"parameterNumberName":"V-component_of_CURRENTS"},"data":[0,0,0,0,0,0,0,0,0,0,0,0,0,0,0,0,0,0,0,0,0,0,0,0,0,0,0,0,0,0,0,0,0,0,0,0,0,0,0,0,0,0,0,0,0,0,0,0,0,0,0,0,0,0,0,0,0,0,0.016,0.0159,0,0.0114,0.0113,0.0112,0.0083,0.0083,0.0083,0.0083,0.0005,0.0003,0.0001,0,0,0,0,0,0,0,0,0,0,0,0,0,0.0174,0.0174,0.016,0.0159,0.0159,0.0114,0.0113,0.0112,0.0083,0.0083,0.0083,0.0083,0.0006,0.0004,0.0001,0,0,0,0,0,0,0,0,0,0,0,0,0,0.015,0.0174,0.016,0.014,0.0138,0.0114,0.0113,0.0112,0.0083,0.0083,0.0083,0.0083,0.0007,0.0004,0.0001,-0.0017,0,0,-0.0008,-0.001,0,0,0,0,0,0,0,0,0.0152,0.015,0.0143,0.0141,0.0139,0.0105,0.009,0.0068,0.0083,0.0102,0.0083,0.0083,0.0037,0.0031,0.0021,-0.002,-0.0024,-0.0009,-0.001,-0.0012,-0.0013,0,0,0,0,0,0,0,0.0154,0.0151,0.014,0.0143,0.014,0.0117,0.0114,0.0085,0.0069,0.01,0.0098,0.0096,0.0035,0.0024,0.0019,-0.0025,-0.0009,-0.0011,-0.0013,-0.0014,-0.0074,-0.0074,0,0,0,0,0,0,0.0165,0.0153,0.0142,0.0139,0.0147,0.0117,0.0113,0.0115,0.007,0.0063,0.0096,0.0095,0.0029,0.0023,0.0016,0.0012,-0.0012,-0.0015,-0.0016,-0.0074,-0.0074,-0.0074,0,0,0,0,0,0,0.0166,0.0165,0.0143,0.0146,0.0142,0.0117,0.0119,0.0114,0.0108,0.0067,0.006,0.0096,0.0029,0.002,-0.0003,0.0008,-0.0016,-0.0019,-0.0075,-0.0074,-0.0074,-0.001,0,0,0,0,0,0,0.0166,0.0165,0.0171,0.0147,0.0142,0.0138,0.0119,0.0113,0.0107,0.0105,0.0064,0.0056,0.0028,0.0002,-0.0006,0.0003,-0.0021,-0.0075,-0.0074,-0.0074,-0.0012,-0.0007,-0.0003,0,0,0,0,0,0.0167,0.018,0.0172,0.0171,0.0151,0.0139,0.0134,0.0115,0.0107,0.0108,0.008,0.0058,-0.0001,-0.0001,-0.001,-0.0001,-0.0075,-0.0075,-0.0074,-0.0014,-0.0008,-0.0003,0,0,0,0,0,0,0.0189,0.0177,0.0168,0.0177,0.0162,0.0135,0.0136,0.0121,0.0099,0.0099,0.0058,0.0049,0.0032,0.0005,0.0007,-0.0018,-0.0041,-0.0042,0.0008,0.0013,0.0018,0.0034,-0.0024,0,0,0,0,0,0.0197,0.0204,0.0184,0.0191,0.0187,0.0162,0.0156,0.0144,0.0121,0.0112,0.0083,0.0052,0.0026,0.0012,-0.0016,-0.003,-0.0063,-0.0031,-0.0026,-0.0022,-0.0015,-0.0061,-0.0059,-0.0072,-0.0072,-0.0072,0,0,0.0208,0.0202,0.0206,0.0196,0.0184,0.0188,0.0158,0.0156,0.016,0.0106,0.0102,0.0066,0.0025,0.001,0.0,-0.001,-0.0035,-0.0021,-0.0017,-0.0013,-0.006,-0.0059,-0.0058,-0.0072,-0.0072,-0.0072,0,0,0.0234,0.0227,0.0243,0.0236,0.0225,0.021,0.0214,0.0191,0.0183,0.017,0.0134,0.0105,0.0067,0.0039,0.002,0.003,-0.0011,0.0024,0.0062,0.0018,0.0019,0.0019,-0.0018,-0.0021,0.0028,0.0029,0.0029,0,0.0247,0.0263,0.0244,0.0256,0.0258,0.0226,0.0243,0.023,0.0202,0.0197,0.0179,0.0119,0.008,0.0061,0.0064,0.0041,0.0013,0.0047,0.0025,0.0024,0.0023,-0.0015,-0.0019,0.0032,0.0031,0.0031,0.0031,0,0.0283,0.0296,0.0305,0.0311,0.031,0.0318,0.0301,0.03,0.0283,0.0261,0.0238,0.0181,0.0147,0.0128,0.0098,0.0079,0.0059,0.0035,0.0014,0.0029,-0.0013,-0.0019,0.0036,0.0035,0.0034,0.0033,0,0,0.031,0.0328,0.0331,0.0351,0.0341,0.035,0.0359,0.0355,0.0366,0.0325,0.0326,0.0267,0.0232,0.0208,0.0163,0.0122,0.0085,0.0084,0.008,0.0053,-0.0006,-0.0013,-0.002,0.0059,0.0058,0.0057,-0.0031,0,0.0344,0.0384,0.038,0.0422,0.0443,0.0426,0.0443,0.0435,0.0411,0.0403,0.0341,0.0321,0.0265,0.0251,0.0201,0.0116,0.0072,0.0112,-0.0021,-0.0025,-0.0028,-0.0027,0.0055,-0.0035,-0.0037,-0.0038,-0.0039,0,0.0381,0.0404,0.0452,0.0492,0.0501,0.0525,0.0546,0.0555,0.0528,0.0506,0.0464,0.0412,0.0353,0.0301,0.0167,0.0197,0.0104,0.0032,0.0026,-0.0006,-0.0043,-0.0056,-0.005,-0.005,-0.0049,-0.0048,-0.0047,0,0.0416,0.0459,0.0505,0.0515,0.0549,0.058,0.0599,0.059,0.061,0.0572,0.0573,0.0484,0.0452,0.0326,0.0178,0.0172,0.0024,-0.0007,-0.0102,-0.0103,-0.0099,-0.0099,-0.0107,-0.0106,-0.0106,-0.0106,-0.0106,0,0.0452,0.0491,0.0535,0.0559,0.0633,0.0636,0.0698,0.0697,0.0701,0.0727,0.0637,0.063,0.0456,0.0352,0.0204,0.004,0.0041,-0.0093,-0.0126,-0.007,-0.0065,-0.0103,-0.0102,-0.0109,-0.0109,-0.0108,-0.0107,0,0.0482,0.0505,0.0569,0.0625,0.0655,0.071,0.0782,0.0815,0.0811,0.084,0.0837,0.0743,0.0603,0.0421,0.0212,0.0087,-0.008,-0.0142,-0.0057,-0.0084,-0.0186,-0.018,-0.0254,-0.0255,-0.0256,-0.0257,-0.0257,0,0.0498,0.0535,0.0624,0.0673,0.0707,0.0787,0.0841,0.087,0.0908,0.0909,0.093,0.0815,0.0725,0.0439,0.023,-0.0051,-0.0098,-0.0186,-0.02,-0.0176,-0.0201,-0.0194,-0.0187,-0.0259,-0.0259,-0.0259,-0.0259,0,0.053,0.0567,0.062,0.0722,0.0799,0.0886,0.0968,0.1008,0.1037,0.1037,0.1004,0.0851,0.0692,0.0451,0.0233,0.0028,-0.0129,-0.0195,-0.0195,-0.021,-0.0182,-0.0205,-0.0197,-0.0262,-0.0262,-0.0262,-0.0261,0,0.0557,0.0602,0.0676,0.0769,0.0868,0.0959,0.0999,0.105,0.1092,0.1091,0.1077,0.0896,0.0792,0.0492,0.0293,0.009,0.0027,-0.0048,-0.0057,-0.0057,0.0018,0.0084,0.006,0,0,0,0,0,0.0576,0.0626,0.0711,0.0814,0.0912,0.0975,0.1074,0.1101,0.1137,0.1125,0.1105,0.0953,0.0656,0.0533,0.0328,0.0256,-0.002,0.0007,-0.0113,-0.0278,-0.0275,-0.0222,0,0,0,0,0,0,0.0587,0.0665,0.0709,0.0837,0.0911,0.1025,0.1092,0.1114,0.1115,0.1115,0.0967,0.0893,0.061,0.0773,0.0321,0.026,0.0152,-0.0128,-0.0133,-0.028,-0.0277,-0.0274,-0.0219,0,0,0,0,0]}]]